owner,sensor,date,latitude,longitude,vertical_datum,sea_water_practical_salinity,qcFlag 
DISL,ioos:station:DISL:KATA:1,2012-06-01T00:00:00Z,30.2583,-88.2131,3.959,24.45,1111122 
DISL,ioos:station:DISL:KATA:1,2012-06-01T00:30:00Z,30.2583,-88.2131,3.956,24.34,1111122 
DISL,ioos:station:DISL:KATA:1,2012-06-01T01:00:00Z,30.2583,-88.2131,3.881,23.51,1111122 
DISL,ioos:station:DISL:KATA:1,2012-06-01T01:30:00Z,30.2583,-88.2131,3.784,23.51,1111122 
DISL,ioos:station:DISL:KATA:1,2012-06-01T02:00:00Z,30.2583,-88.2131,3.771,23.93,1111122 
DISL,ioos:station:DISL:KATA:1,2012-06-01T02:30:00Z,30.2583,-88.2131,3.726,24.81,1111122 
DISL,ioos:station:DISL:KATA:1,2012-06-01T03:00:00Z,30.2583,-88.2131,3.712,24.75,1111122 
DISL,ioos:station:DISL:KATA:1,2012-06-01T03:30:00Z,30.2583,-88.2131,3.738,24.68,1111122 
DISL,ioos:station:DISL:KATA:1,2012-06-01T04:00:00Z,30.2583,-88.2131,3.76,24.66,1111122 
DISL,ioos:station:DISL:KATA:1,2012-06-01T04:30:00Z,30.2583,-88.2131,3.829,24.66,1111122 
DISL,ioos:station:DISL:KATA:1,2012-06-01T05:00:00Z,30.2583,-88.2131,3.901,24.66,1111122 
DISL,ioos:station:DISL:KATA:1,2012-06-01T05:30:00Z,30.2583,-88.2131,3.978,24.67,1111122 
DISL,ioos:station:DISL:KATA:1,2012-06-01T06:00:00Z,30.2583,-88.2131,4.021,24.42,1111122 
DISL,ioos:station:DISL:KATA:1,2012-06-01T06:30:00Z,30.2583,-88.2131,4.017,24.44,1111122 
DISL,ioos:station:DISL:KATA:1,2012-06-01T07:00:00Z,30.2583,-88.2131,4.019,24.53,1111122 
DISL,ioos:station:DISL:KATA:1,2012-06-01T07:30:00Z,30.2583,-88.2131,4.047,24.51,1111122 
DISL,ioos:station:DISL:KATA:1,2012-06-01T08:00:00Z,30.2583,-88.2131,4.06,24.63,1111122 
DISL,ioos:station:DISL:KATA:1,2012-06-01T08:30:00Z,30.2583,-88.2131,4.309,24.57,1111122 
DISL,ioos:station:DISL:KATA:1,2012-06-01T09:00:00Z,30.2583,-88.2131,4.27,24.66,1111122 
DISL,ioos:station:DISL:KATA:1,2012-06-01T09:30:00Z,30.2583,-88.2131,4.209,24.9,1111122 
DISL,ioos:station:DISL:KATA:1,2012-06-01T10:00:00Z,30.2583,-88.2131,4.18,24.92,1111122 
DISL,ioos:station:DISL:KATA:1,2012-06-01T10:30:00Z,30.2583,-88.2131,4.152,24.66,1111122 
DISL,ioos:station:DISL:KATA:1,2012-06-01T11:00:00Z,30.2583,-88.2131,4.119,23.42,1111122 
DISL,ioos:station:DISL:KATA:1,2012-06-01T11:30:00Z,30.2583,-88.2131,4.1,23.91,1111122 
DISL,ioos:station:DISL:KATA:1,2012-06-01T12:00:00Z,30.2583,-88.2131,4.05,23.95,1111122 
DISL,ioos:station:DISL:KATA:1,2012-06-01T12:30:00Z,30.2583,-88.2131,4.08,23.39,1111122 
DISL,ioos:station:DISL:KATA:1,2012-06-01T13:00:00Z,30.2583,-88.2131,4.119,23.54,1111122 
DISL,ioos:station:DISL:KATA:1,2012-06-01T13:30:00Z,30.2583,-88.2131,4.212,24.34,1111122 
DISL,ioos:station:DISL:KATA:1,2012-06-01T14:00:00Z,30.2583,-88.2131,4.288,23.54,1111122 
DISL,ioos:station:DISL:KATA:1,2012-06-01T14:30:00Z,30.2583,-88.2131,4.305,24.41,1111122 
DISL,ioos:station:DISL:KATA:1,2012-06-01T15:00:00Z,30.2583,-88.2131,4.3,24.53,1111122 
DISL,ioos:station:DISL:KATA:1,2012-06-01T15:30:00Z,30.2583,-88.2131,4.258,23.65,1111122 
DISL,ioos:station:DISL:KATA:1,2012-06-01T16:00:00Z,30.2583,-88.2131,4.21,24.56,1111122 
DISL,ioos:station:DISL:KATA:1,2012-06-01T16:30:00Z,30.2583,-88.2131,4.106,24.12,1111122 
DISL,ioos:station:DISL:KATA:1,2012-06-01T17:00:00Z,30.2583,-88.2131,4.033,24.33,1111122 
DISL,ioos:station:DISL:KATA:1,2012-06-01T17:30:00Z,30.2583,-88.2131,3.953,24.66,1111122 
DISL,ioos:station:DISL:KATA:1,2012-06-01T18:00:00Z,30.2583,-88.2131,3.91,24.99,1111122 
DISL,ioos:station:DISL:KATA:1,2012-06-01T18:30:00Z,30.2583,-88.2131,3.868,24.98,1111122 
DISL,ioos:station:DISL:KATA:1,2012-06-01T19:00:00Z,30.2583,-88.2131,3.823,24.92,1111122 
DISL,ioos:station:DISL:KATA:1,2012-06-01T19:30:00Z,30.2583,-88.2131,3.773,24.88,1111122 
DISL,ioos:station:DISL:KATA:1,2012-06-01T20:00:00Z,30.2583,-88.2131,3.739,24.83,1111122 
DISL,ioos:station:DISL:KATA:1,2012-06-01T20:30:00Z,30.2583,-88.2131,3.711,23.35,1111122 
DISL,ioos:station:DISL:KATA:1,2012-06-01T21:00:00Z,30.2583,-88.2131,3.686,23.71,1111122 
DISL,ioos:station:DISL:KATA:1,2012-06-01T21:30:00Z,30.2583,-88.2131,3.691,23.35,1111122 
DISL,ioos:station:DISL:KATA:1,2012-06-01T22:00:00Z,30.2583,-88.2131,3.695,23.1,1111122 
DISL,ioos:station:DISL:KATA:1,2012-06-01T22:30:00Z,30.2583,-88.2131,3.699,24.14,1111122 
DISL,ioos:station:DISL:KATA:1,2012-06-01T23:00:00Z,30.2583,-88.2131,3.686,23.14,1111122 
DISL,ioos:station:DISL:KATA:1,2012-06-01T23:30:00Z,30.2583,-88.2131,3.649,24.58,1111122 
DISL,ioos:station:DISL:KATA:1,2012-06-02T00:00:00Z,30.2583,-88.2131,3.623,24.05,1111122 
DISL,ioos:station:DISL:KATA:1,2012-06-02T00:30:00Z,30.2583,-88.2131,3.613,23.72,1111122 
DISL,ioos:station:DISL:KATA:1,2012-06-02T01:00:00Z,30.2583,-88.2131,3.621,24.2,1111122 
DISL,ioos:station:DISL:KATA:1,2012-06-02T01:30:00Z,30.2583,-88.2131,3.621,23.78,1111122 
DISL,ioos:station:DISL:KATA:1,2012-06-02T02:00:00Z,30.2583,-88.2131,3.666,23.02,1111122 
DISL,ioos:station:DISL:KATA:1,2012-06-02T02:30:00Z,30.2583,-88.2131,3.678,24.15,1111122 
DISL,ioos:station:DISL:KATA:1,2012-06-02T03:00:00Z,30.2583,-88.2131,3.706,23.21,1111122 
DISL,ioos:station:DISL:KATA:1,2012-06-02T03:30:00Z,30.2583,-88.2131,3.732,22.73,1111122 
DISL,ioos:station:DISL:KATA:1,2012-06-02T04:00:00Z,30.2583,-88.2131,3.758,23.47,1111122 
DISL,ioos:station:DISL:KATA:1,2012-06-02T04:30:00Z,30.2583,-88.2131,3.788,23.27,1111122 
DISL,ioos:station:DISL:KATA:1,2012-06-02T05:00:00Z,30.2583,-88.2131,3.791,23.14,1111122 
DISL,ioos:station:DISL:KATA:1,2012-06-02T05:30:00Z,30.2583,-88.2131,3.796,22.74,1111122 
DISL,ioos:station:DISL:KATA:1,2012-06-02T06:00:00Z,30.2583,-88.2131,3.801,22.7,1111122 
DISL,ioos:station:DISL:KATA:1,2012-06-02T06:30:00Z,30.2583,-88.2131,3.817,22.76,1111122 
DISL,ioos:station:DISL:KATA:1,2012-06-02T07:00:00Z,30.2583,-88.2131,3.848,23.03,1111122 
DISL,ioos:station:DISL:KATA:1,2012-06-02T07:30:00Z,30.2583,-88.2131,3.887,23.87,1111122 
DISL,ioos:station:DISL:KATA:1,2012-06-02T08:00:00Z,30.2583,-88.2131,3.939,23.26,1111122 
DISL,ioos:station:DISL:KATA:1,2012-06-02T08:30:00Z,30.2583,-88.2131,3.993,23.12,1111122 
DISL,ioos:station:DISL:KATA:1,2012-06-02T09:00:00Z,30.2583,-88.2131,4.031,23.14,1111122 
DISL,ioos:station:DISL:KATA:1,2012-06-02T09:30:00Z,30.2583,-88.2131,4.074,23.16,1111122 
DISL,ioos:station:DISL:KATA:1,2012-06-02T10:00:00Z,30.2583,-88.2131,4.125,23.28,1111122 
DISL,ioos:station:DISL:KATA:1,2012-06-02T10:30:00Z,30.2583,-88.2131,4.162,23.32,1111122 
DISL,ioos:station:DISL:KATA:1,2012-06-02T11:00:00Z,30.2583,-88.2131,4.194,23.93,1111122 
DISL,ioos:station:DISL:KATA:1,2012-06-02T11:30:00Z,30.2583,-88.2131,4.222,23.4,1111122 
DISL,ioos:station:DISL:KATA:1,2012-06-02T12:00:00Z,30.2583,-88.2131,4.251,23.27,1111122 
DISL,ioos:station:DISL:KATA:1,2012-06-02T12:30:00Z,30.2583,-88.2131,4.278,23.47,1111122 
DISL,ioos:station:DISL:KATA:1,2012-06-02T13:00:00Z,30.2583,-88.2131,4.287,23.53,1111122 
DISL,ioos:station:DISL:KATA:1,2012-06-02T13:30:00Z,30.2583,-88.2131,4.294,23.42,1111122 
DISL,ioos:station:DISL:KATA:1,2012-06-02T14:00:00Z,30.2583,-88.2131,4.28,23.44,1111122 
DISL,ioos:station:DISL:KATA:1,2012-06-02T14:30:00Z,30.2583,-88.2131,4.258,24.01,1111122 
DISL,ioos:station:DISL:KATA:1,2012-06-02T15:00:00Z,30.2583,-88.2131,4.239,23.44,1111122 
DISL,ioos:station:DISL:KATA:1,2012-06-02T15:30:00Z,30.2583,-88.2131,4.203,23.91,1111122 
DISL,ioos:station:DISL:KATA:1,2012-06-02T16:00:00Z,30.2583,-88.2131,4.178,23.57,1111122 
DISL,ioos:station:DISL:KATA:1,2012-06-02T16:30:00Z,30.2583,-88.2131,4.15,23.63,1111122 
DISL,ioos:station:DISL:KATA:1,2012-06-02T17:00:00Z,30.2583,-88.2131,4.121,23.55,1111122 
DISL,ioos:station:DISL:KATA:1,2012-06-02T17:30:00Z,30.2583,-88.2131,4.084,23.74,1111122 
DISL,ioos:station:DISL:KATA:1,2012-06-02T18:00:00Z,30.2583,-88.2131,4.037,23.74,1111122 
DISL,ioos:station:DISL:KATA:1,2012-06-02T18:30:00Z,30.2583,-88.2131,3.982,23.57,1111122 
DISL,ioos:station:DISL:KATA:1,2012-06-02T19:00:00Z,30.2583,-88.2131,3.923,23.52,1111122 
DISL,ioos:station:DISL:KATA:1,2012-06-02T19:30:00Z,30.2583,-88.2131,3.862,23.45,1111122 
DISL,ioos:station:DISL:KATA:1,2012-06-02T20:00:00Z,30.2583,-88.2131,3.801,23.45,1111122 
DISL,ioos:station:DISL:KATA:1,2012-06-02T20:30:00Z,30.2583,-88.2131,3.739,24.3,1111122 
DISL,ioos:station:DISL:KATA:1,2012-06-02T21:00:00Z,30.2583,-88.2131,3.69,23.35,1111122 
DISL,ioos:station:DISL:KATA:1,2012-06-02T21:30:00Z,30.2583,-88.2131,3.645,23.25,1111122 
DISL,ioos:station:DISL:KATA:1,2012-06-02T22:00:00Z,30.2583,-88.2131,3.611,23.07,1111122 
DISL,ioos:station:DISL:KATA:1,2012-06-02T22:30:00Z,30.2583,-88.2131,3.58,24.6,1111122 
DISL,ioos:station:DISL:KATA:1,2012-06-02T23:00:00Z,30.2583,-88.2131,3.559,24.78,1111122 
DISL,ioos:station:DISL:KATA:1,2012-06-02T23:30:00Z,30.2583,-88.2131,3.547,24.7,1111122 
DISL,ioos:station:DISL:KATA:1,2012-06-03T00:00:00Z,30.2583,-88.2131,3.553,23.2,1111122 
DISL,ioos:station:DISL:KATA:1,2012-06-03T00:30:00Z,30.2583,-88.2131,3.573,23.52,1111122 
DISL,ioos:station:DISL:KATA:1,2012-06-03T01:00:00Z,30.2583,-88.2131,3.588,23.92,1111122 
DISL,ioos:station:DISL:KATA:1,2012-06-03T01:30:00Z,30.2583,-88.2131,3.601,23.01,1111122 
DISL,ioos:station:DISL:KATA:1,2012-06-03T02:00:00Z,30.2583,-88.2131,3.613,23.41,1111122 
DISL,ioos:station:DISL:KATA:1,2012-06-03T02:30:00Z,30.2583,-88.2131,3.622,24.37,1111122 
DISL,ioos:station:DISL:KATA:1,2012-06-03T03:00:00Z,30.2583,-88.2131,3.65,23.62,1111122 
DISL,ioos:station:DISL:KATA:1,2012-06-03T03:30:00Z,30.2583,-88.2131,3.688,23.24,1111122 
DISL,ioos:station:DISL:KATA:1,2012-06-03T04:00:00Z,30.2583,-88.2131,3.725,23.82,1111122 
DISL,ioos:station:DISL:KATA:1,2012-06-03T04:30:00Z,30.2583,-88.2131,3.781,24.13,1111122 
DISL,ioos:station:DISL:KATA:1,2012-06-03T05:00:00Z,30.2583,-88.2131,3.824,24.58,1111122 
DISL,ioos:station:DISL:KATA:1,2012-06-03T05:30:00Z,30.2583,-88.2131,3.873,23.22,1111122 
DISL,ioos:station:DISL:KATA:1,2012-06-03T06:00:00Z,30.2583,-88.2131,3.911,23.29,1111122 
DISL,ioos:station:DISL:KATA:1,2012-06-03T06:30:00Z,30.2583,-88.2131,3.941,23.38,1111122 
DISL,ioos:station:DISL:KATA:1,2012-06-03T07:00:00Z,30.2583,-88.2131,3.957,23.34,1111122 
DISL,ioos:station:DISL:KATA:1,2012-06-03T07:30:00Z,30.2583,-88.2131,3.975,23.37,1111122 
DISL,ioos:station:DISL:KATA:1,2012-06-03T08:00:00Z,30.2583,-88.2131,3.996,24.0,1111122 
DISL,ioos:station:DISL:KATA:1,2012-06-03T08:30:00Z,30.2583,-88.2131,4.019,24.42,1111122 
DISL,ioos:station:DISL:KATA:1,2012-06-03T09:00:00Z,30.2583,-88.2131,4.045,24.5,1111122 
DISL,ioos:station:DISL:KATA:1,2012-06-03T09:30:00Z,30.2583,-88.2131,4.082,24.27,1111122 
DISL,ioos:station:DISL:KATA:1,2012-06-03T10:00:00Z,30.2583,-88.2131,4.11,24.24,1111122 
DISL,ioos:station:DISL:KATA:1,2012-06-03T10:30:00Z,30.2583,-88.2131,4.143,23.76,1111122 
DISL,ioos:station:DISL:KATA:1,2012-06-03T11:00:00Z,30.2583,-88.2131,4.178,24.58,1111122 
DISL,ioos:station:DISL:KATA:1,2012-06-03T11:30:00Z,30.2583,-88.2131,4.213,24.07,1111122 
DISL,ioos:station:DISL:KATA:1,2012-06-03T12:00:00Z,30.2583,-88.2131,4.238,25.03,1111122 
DISL,ioos:station:DISL:KATA:1,2012-06-03T12:30:00Z,30.2583,-88.2131,4.265,25.06,1111122 
DISL,ioos:station:DISL:KATA:1,2012-06-03T13:00:00Z,30.2583,-88.2131,4.283,25.05,1111122 
DISL,ioos:station:DISL:KATA:1,2012-06-03T13:30:00Z,30.2583,-88.2131,4.291,25.89,1111122 
DISL,ioos:station:DISL:KATA:1,2012-06-03T14:00:00Z,30.2583,-88.2131,4.293,26.06,1111122 
DISL,ioos:station:DISL:KATA:1,2012-06-03T14:30:00Z,30.2583,-88.2131,4.279,24.47,1111122 
DISL,ioos:station:DISL:KATA:1,2012-06-03T15:00:00Z,30.2583,-88.2131,4.257,24.82,1111122 
DISL,ioos:station:DISL:KATA:1,2012-06-03T15:30:00Z,30.2583,-88.2131,4.234,24.77,1111122 
DISL,ioos:station:DISL:KATA:1,2012-06-03T16:00:00Z,30.2583,-88.2131,4.206,24.91,1111122 
DISL,ioos:station:DISL:KATA:1,2012-06-03T16:30:00Z,30.2583,-88.2131,4.172,25.54,1111122 
DISL,ioos:station:DISL:KATA:1,2012-06-03T17:00:00Z,30.2583,-88.2131,4.14,26.13,1111122 
DISL,ioos:station:DISL:KATA:1,2012-06-03T17:30:00Z,30.2583,-88.2131,4.102,26.08,1111122 
DISL,ioos:station:DISL:KATA:1,2012-06-03T18:00:00Z,30.2583,-88.2131,4.067,26.11,1111122 
DISL,ioos:station:DISL:KATA:1,2012-06-03T18:30:00Z,30.2583,-88.2131,4.026,25.17,1111122 
DISL,ioos:station:DISL:KATA:1,2012-06-03T19:00:00Z,30.2583,-88.2131,3.971,25.62,1111122 
DISL,ioos:station:DISL:KATA:1,2012-06-03T19:30:00Z,30.2583,-88.2131,3.913,26.13,1111122 
DISL,ioos:station:DISL:KATA:1,2012-06-03T20:00:00Z,30.2583,-88.2131,3.845,25.16,1111122 
DISL,ioos:station:DISL:KATA:1,2012-06-03T20:30:00Z,30.2583,-88.2131,3.785,25.43,1111122 
DISL,ioos:station:DISL:KATA:1,2012-06-03T21:00:00Z,30.2583,-88.2131,3.732,24.85,1111122 
DISL,ioos:station:DISL:KATA:1,2012-06-03T21:30:00Z,30.2583,-88.2131,3.678,25.07,1111122 
DISL,ioos:station:DISL:KATA:1,2012-06-03T22:00:00Z,30.2583,-88.2131,3.629,24.93,1111122 
DISL,ioos:station:DISL:KATA:1,2012-06-03T22:30:00Z,30.2583,-88.2131,3.603,24.41,1111122 
DISL,ioos:station:DISL:KATA:1,2012-06-03T23:00:00Z,30.2583,-88.2131,3.571,24.95,1111122 
DISL,ioos:station:DISL:KATA:1,2012-06-03T23:30:00Z,30.2583,-88.2131,3.551,23.6,1111122 
DISL,ioos:station:DISL:KATA:1,2012-06-04T00:00:00Z,30.2583,-88.2131,3.538,24.22,1111122 
DISL,ioos:station:DISL:KATA:1,2012-06-04T00:30:00Z,30.2583,-88.2131,3.525,24.78,1111122 
DISL,ioos:station:DISL:KATA:1,2012-06-04T01:00:00Z,30.2583,-88.2131,3.532,22.92,1111122 
DISL,ioos:station:DISL:KATA:1,2012-06-04T01:30:00Z,30.2583,-88.2131,3.537,24.16,1111122 
DISL,ioos:station:DISL:KATA:1,2012-06-04T02:00:00Z,30.2583,-88.2131,3.547,24.09,1111122 
DISL,ioos:station:DISL:KATA:1,2012-06-04T02:30:00Z,30.2583,-88.2131,3.57,23.41,1111122 
DISL,ioos:station:DISL:KATA:1,2012-06-04T03:00:00Z,30.2583,-88.2131,3.588,24.35,1111122 
DISL,ioos:station:DISL:KATA:1,2012-06-04T03:30:00Z,30.2583,-88.2131,3.622,23.97,1111122 
DISL,ioos:station:DISL:KATA:1,2012-06-04T04:00:00Z,30.2583,-88.2131,3.664,23.22,1111122 
DISL,ioos:station:DISL:KATA:1,2012-06-04T04:30:00Z,30.2583,-88.2131,3.71,24.96,1111122 
DISL,ioos:station:DISL:KATA:1,2012-06-04T05:00:00Z,30.2583,-88.2131,3.764,23.85,1111122 
DISL,ioos:station:DISL:KATA:1,2012-06-04T05:30:00Z,30.2583,-88.2131,3.81,24.96,1111122 
DISL,ioos:station:DISL:KATA:1,2012-06-04T06:00:00Z,30.2583,-88.2131,3.859,24.88,1111122 
DISL,ioos:station:DISL:KATA:1,2012-06-04T06:30:00Z,30.2583,-88.2131,3.91,23.72,1111122 
DISL,ioos:station:DISL:KATA:1,2012-06-04T07:00:00Z,30.2583,-88.2131,3.949,23.29,1111122 
DISL,ioos:station:DISL:KATA:1,2012-06-04T07:30:00Z,30.2583,-88.2131,3.968,25.85,1111122 
DISL,ioos:station:DISL:KATA:1,2012-06-04T08:00:00Z,30.2583,-88.2131,3.978,26.4,1111122 
DISL,ioos:station:DISL:KATA:1,2012-06-04T08:30:00Z,30.2583,-88.2131,3.999,25.56,1111122 
DISL,ioos:station:DISL:KATA:1,2012-06-04T09:00:00Z,30.2583,-88.2131,4.011,26.61,1111122 
DISL,ioos:station:DISL:KATA:1,2012-06-04T09:30:00Z,30.2583,-88.2131,4.028,25.65,1111122 
DISL,ioos:station:DISL:KATA:1,2012-06-04T10:00:00Z,30.2583,-88.2131,4.044,26.03,1111122 
DISL,ioos:station:DISL:KATA:1,2012-06-04T10:30:00Z,30.2583,-88.2131,4.081,26.12,1111122 
DISL,ioos:station:DISL:KATA:1,2012-06-04T11:00:00Z,30.2583,-88.2131,4.126,26.49,1111122 
DISL,ioos:station:DISL:KATA:1,2012-06-04T11:30:00Z,30.2583,-88.2131,4.174,26.47,1111122 
DISL,ioos:station:DISL:KATA:1,2012-06-04T12:00:00Z,30.2583,-88.2131,4.225,26.19,1111122 
DISL,ioos:station:DISL:KATA:1,2012-06-04T12:30:00Z,30.2583,-88.2131,4.272,26.24,1111122 
DISL,ioos:station:DISL:KATA:1,2012-06-04T13:00:00Z,30.2583,-88.2131,4.312,24.99,1111122 
DISL,ioos:station:DISL:KATA:1,2012-06-04T13:30:00Z,30.2583,-88.2131,4.35,25.84,1111122 
DISL,ioos:station:DISL:KATA:1,2012-06-04T14:00:00Z,30.2583,-88.2131,4.371,25.37,1111122 
DISL,ioos:station:DISL:KATA:1,2012-06-04T14:30:00Z,30.2583,-88.2131,4.365,26.36,1111122 
DISL,ioos:station:DISL:KATA:1,2012-06-04T15:00:00Z,30.2583,-88.2131,4.35,26.69,1111122 
DISL,ioos:station:DISL:KATA:1,2012-06-04T15:30:00Z,30.2583,-88.2131,4.33,26.89,1111122 
DISL,ioos:station:DISL:KATA:1,2012-06-04T16:00:00Z,30.2583,-88.2131,4.288,26.49,1111122 
DISL,ioos:station:DISL:KATA:1,2012-06-04T16:30:00Z,30.2583,-88.2131,4.248,26.64,1111122 
DISL,ioos:station:DISL:KATA:1,2012-06-04T17:00:00Z,30.2583,-88.2131,4.206,26.63,1111122 
DISL,ioos:station:DISL:KATA:1,2012-06-04T17:30:00Z,30.2583,-88.2131,4.166,26.54,1111122 
DISL,ioos:station:DISL:KATA:1,2012-06-04T18:00:00Z,30.2583,-88.2131,4.124,26.22,1111122 
DISL,ioos:station:DISL:KATA:1,2012-06-04T18:30:00Z,30.2583,-88.2131,4.077,26.48,1111122 
DISL,ioos:station:DISL:KATA:1,2012-06-04T19:00:00Z,30.2583,-88.2131,4.039,26.64,1111122 
DISL,ioos:station:DISL:KATA:1,2012-06-04T19:30:00Z,30.2583,-88.2131,3.996,26.74,1111122 
DISL,ioos:station:DISL:KATA:1,2012-06-04T20:00:00Z,30.2583,-88.2131,3.952,27.27,1111122 
DISL,ioos:station:DISL:KATA:1,2012-06-04T20:30:00Z,30.2583,-88.2131,3.901,26.57,1111122 
DISL,ioos:station:DISL:KATA:1,2012-06-04T21:00:00Z,30.2583,-88.2131,3.846,27.32,1111122 
DISL,ioos:station:DISL:KATA:1,2012-06-04T21:30:00Z,30.2583,-88.2131,3.782,27.23,1111122 
DISL,ioos:station:DISL:KATA:1,2012-06-04T22:00:00Z,30.2583,-88.2131,3.721,27.15,1111122 
DISL,ioos:station:DISL:KATA:1,2012-06-04T22:30:00Z,30.2583,-88.2131,3.677,27.08,1111122 
DISL,ioos:station:DISL:KATA:1,2012-06-04T23:00:00Z,30.2583,-88.2131,3.631,26.96,1111122 
DISL,ioos:station:DISL:KATA:1,2012-06-04T23:30:00Z,30.2583,-88.2131,3.591,26.91,1111122 
DISL,ioos:station:DISL:KATA:1,2012-06-05T00:00:00Z,30.2583,-88.2131,3.57,26.91,1111122 
DISL,ioos:station:DISL:KATA:1,2012-06-05T00:30:00Z,30.2583,-88.2131,3.554,26.15,1111122 
DISL,ioos:station:DISL:KATA:1,2012-06-05T01:00:00Z,30.2583,-88.2131,3.544,25.55,1111122 
DISL,ioos:station:DISL:KATA:1,2012-06-05T01:30:00Z,30.2583,-88.2131,3.524,26.12,1111122 
DISL,ioos:station:DISL:KATA:1,2012-06-05T02:00:00Z,30.2583,-88.2131,3.53,24.61,1111122 
DISL,ioos:station:DISL:KATA:1,2012-06-05T02:30:00Z,30.2583,-88.2131,3.53,25.9,1111122 
DISL,ioos:station:DISL:KATA:1,2012-06-05T03:00:00Z,30.2583,-88.2131,3.537,26.42,1111122 
DISL,ioos:station:DISL:KATA:1,2012-06-05T03:30:00Z,30.2583,-88.2131,3.548,26.57,1111122 
DISL,ioos:station:DISL:KATA:1,2012-06-05T04:00:00Z,30.2583,-88.2131,3.575,26.56,1111122 
DISL,ioos:station:DISL:KATA:1,2012-06-05T04:30:00Z,30.2583,-88.2131,3.621,26.5,1111122 
DISL,ioos:station:DISL:KATA:1,2012-06-05T05:00:00Z,30.2583,-88.2131,3.681,25.88,1111122 
DISL,ioos:station:DISL:KATA:1,2012-06-05T05:30:00Z,30.2583,-88.2131,3.741,25.15,1111122 
DISL,ioos:station:DISL:KATA:1,2012-06-05T06:00:00Z,30.2583,-88.2131,3.79,26.68,1111122 
DISL,ioos:station:DISL:KATA:1,2012-06-05T06:30:00Z,30.2583,-88.2131,3.842,26.76,1111122 
DISL,ioos:station:DISL:KATA:1,2012-06-05T07:00:00Z,30.2583,-88.2131,3.893,25.64,1111122 
DISL,ioos:station:DISL:KATA:1,2012-06-05T07:30:00Z,30.2583,-88.2131,3.93,26.35,1111122 
DISL,ioos:station:DISL:KATA:1,2012-06-05T08:00:00Z,30.2583,-88.2131,3.95,25.79,1111122 
DISL,ioos:station:DISL:KATA:1,2012-06-05T08:30:00Z,30.2583,-88.2131,3.982,26.28,1111122 
DISL,ioos:station:DISL:KATA:1,2012-06-05T09:00:00Z,30.2583,-88.2131,3.994,26.23,1111122 
DISL,ioos:station:DISL:KATA:1,2012-06-05T09:30:00Z,30.2583,-88.2131,4.024,26.99,1111122 
DISL,ioos:station:DISL:KATA:1,2012-06-05T10:00:00Z,30.2583,-88.2131,4.044,27.02,1111122 
DISL,ioos:station:DISL:KATA:1,2012-06-05T10:30:00Z,30.2583,-88.2131,4.083,27.04,1111122 
DISL,ioos:station:DISL:KATA:1,2012-06-05T11:00:00Z,30.2583,-88.2131,4.126,27.09,1111122 
DISL,ioos:station:DISL:KATA:1,2012-06-05T11:30:00Z,30.2583,-88.2131,4.169,27.13,1111122 
DISL,ioos:station:DISL:KATA:1,2012-06-05T12:00:00Z,30.2583,-88.2131,4.197,27.18,1111122 
DISL,ioos:station:DISL:KATA:1,2012-06-05T12:30:00Z,30.2583,-88.2131,4.238,26.16,1111122 
DISL,ioos:station:DISL:KATA:1,2012-06-05T13:00:00Z,30.2583,-88.2131,4.275,27.26,1111122 
DISL,ioos:station:DISL:KATA:1,2012-06-05T13:30:00Z,30.2583,-88.2131,4.304,27.23,1111122 
DISL,ioos:station:DISL:KATA:1,2012-06-05T14:00:00Z,30.2583,-88.2131,4.347,25.92,1111122 
DISL,ioos:station:DISL:KATA:1,2012-06-05T14:30:00Z,30.2583,-88.2131,4.38,27.06,1111122 
DISL,ioos:station:DISL:KATA:1,2012-06-05T15:00:00Z,30.2583,-88.2131,4.392,27.29,1111122 
DISL,ioos:station:DISL:KATA:1,2012-06-05T15:30:00Z,30.2583,-88.2131,4.41,26.97,1111122 
DISL,ioos:station:DISL:KATA:1,2012-06-05T16:00:00Z,30.2583,-88.2131,4.394,26.93,1111122 
DISL,ioos:station:DISL:KATA:1,2012-06-05T16:30:00Z,30.2583,-88.2131,4.366,27.71,1111122 
DISL,ioos:station:DISL:KATA:1,2012-06-05T17:00:00Z,30.2583,-88.2131,4.348,27.72,1111122 
DISL,ioos:station:DISL:KATA:1,2012-06-05T17:30:00Z,30.2583,-88.2131,4.325,27.86,1111122 
DISL,ioos:station:DISL:KATA:1,2012-06-05T18:00:00Z,30.2583,-88.2131,4.301,27.88,1111122 
DISL,ioos:station:DISL:KATA:1,2012-06-05T18:30:00Z,30.2583,-88.2131,4.28,27.88,1111122 
DISL,ioos:station:DISL:KATA:1,2012-06-05T19:00:00Z,30.2583,-88.2131,4.247,26.49,1111122 
DISL,ioos:station:DISL:KATA:1,2012-06-05T19:30:00Z,30.2583,-88.2131,4.21,27.83,1111122 
DISL,ioos:station:DISL:KATA:1,2012-06-05T20:00:00Z,30.2583,-88.2131,4.165,27.76,1111122 
DISL,ioos:station:DISL:KATA:1,2012-06-05T20:30:00Z,30.2583,-88.2131,4.103,27.79,1111122 
DISL,ioos:station:DISL:KATA:1,2012-06-05T21:00:00Z,30.2583,-88.2131,4.06,27.77,1111122 
DISL,ioos:station:DISL:KATA:1,2012-06-05T21:30:00Z,30.2583,-88.2131,4.018,27.74,1111122 
DISL,ioos:station:DISL:KATA:1,2012-06-05T22:00:00Z,30.2583,-88.2131,3.969,27.65,1111122 
DISL,ioos:station:DISL:KATA:1,2012-06-05T22:30:00Z,30.2583,-88.2131,3.939,27.66,1111122 
DISL,ioos:station:DISL:KATA:1,2012-06-05T23:00:00Z,30.2583,-88.2131,3.916,26.29,1111122 
DISL,ioos:station:DISL:KATA:1,2012-06-05T23:30:00Z,30.2583,-88.2131,3.882,27.6,1111122 
DISL,ioos:station:DISL:KATA:1,2012-06-06T00:00:00Z,30.2583,-88.2131,3.855,27.48,1111122 
DISL,ioos:station:DISL:KATA:1,2012-06-06T00:30:00Z,30.2583,-88.2131,3.823,27.42,1111122 
DISL,ioos:station:DISL:KATA:1,2012-06-06T01:00:00Z,30.2583,-88.2131,3.806,27.24,1111122 
DISL,ioos:station:DISL:KATA:1,2012-06-06T01:30:00Z,30.2583,-88.2131,3.804,26.13,1111122 
DISL,ioos:station:DISL:KATA:1,2012-06-06T02:00:00Z,30.2583,-88.2131,3.761,26.04,1111122 
DISL,ioos:station:DISL:KATA:1,2012-06-06T02:30:00Z,30.2583,-88.2131,3.706,27.28,1111122 
DISL,ioos:station:DISL:KATA:1,2012-06-06T03:00:00Z,30.2583,-88.2131,3.669,27.31,1111122 
DISL,ioos:station:DISL:KATA:1,2012-06-06T03:30:00Z,30.2583,-88.2131,3.643,26.18,1111122 
DISL,ioos:station:DISL:KATA:1,2012-06-06T04:00:00Z,30.2583,-88.2131,3.611,27.4,1111122 
DISL,ioos:station:DISL:KATA:1,2012-06-06T04:30:00Z,30.2583,-88.2131,3.603,27.31,1111122 
DISL,ioos:station:DISL:KATA:1,2012-06-06T05:00:00Z,30.2583,-88.2131,3.597,27.26,1111122 
DISL,ioos:station:DISL:KATA:1,2012-06-06T05:30:00Z,30.2583,-88.2131,3.615,27.25,1111122 
DISL,ioos:station:DISL:KATA:1,2012-06-06T06:00:00Z,30.2583,-88.2131,3.645,27.22,1111122 
DISL,ioos:station:DISL:KATA:1,2012-06-06T06:30:00Z,30.2583,-88.2131,3.702,27.21,1111122 
DISL,ioos:station:DISL:KATA:1,2012-06-06T07:00:00Z,30.2583,-88.2131,3.739,27.23,1111122 
DISL,ioos:station:DISL:KATA:1,2012-06-06T07:30:00Z,30.2583,-88.2131,3.791,27.23,1111122 
DISL,ioos:station:DISL:KATA:1,2012-06-06T08:00:00Z,30.2583,-88.2131,3.835,27.23,1111122 
DISL,ioos:station:DISL:KATA:1,2012-06-06T08:30:00Z,30.2583,-88.2131,3.864,27.24,1111122 
DISL,ioos:station:DISL:KATA:1,2012-06-06T09:00:00Z,30.2583,-88.2131,3.896,26.6,1111122 
DISL,ioos:station:DISL:KATA:1,2012-06-06T09:30:00Z,30.2583,-88.2131,3.933,26.34,1111122 
DISL,ioos:station:DISL:KATA:1,2012-06-06T10:00:00Z,30.2583,-88.2131,3.958,24.5,1111122 
DISL,ioos:station:DISL:KATA:1,2012-06-06T10:30:00Z,30.2583,-88.2131,3.99,25.28,1111122 
DISL,ioos:station:DISL:KATA:1,2012-06-06T11:00:00Z,30.2583,-88.2131,4.017,26.67,1111122 
DISL,ioos:station:DISL:KATA:1,2012-06-06T11:30:00Z,30.2583,-88.2131,4.048,26.13,1111122 
DISL,ioos:station:DISL:KATA:1,2012-06-06T12:00:00Z,30.2583,-88.2131,4.073,26.01,1111122 
DISL,ioos:station:DISL:KATA:1,2012-06-06T12:30:00Z,30.2583,-88.2131,4.113,25.97,1111122 
DISL,ioos:station:DISL:KATA:1,2012-06-06T13:00:00Z,30.2583,-88.2131,4.16,25.93,1111122 
DISL,ioos:station:DISL:KATA:1,2012-06-06T13:30:00Z,30.2583,-88.2131,4.211,26.04,1111122 
DISL,ioos:station:DISL:KATA:1,2012-06-06T14:00:00Z,30.2583,-88.2131,4.25,26.1,1111122 